Miscellaneous Local Product
Issued by NWS North Platte, NE

Home | Current Version | Previous Version | Text Only | Print | Product List | Glossary On
Versions: 1 2 3 4 5 6 7 8 9 10 11 12 13 14 15 16 17 18 19 20 21 22 23 24 25 26 27 28 29 30 31 32 33 34 35 36 37 38 39 40 41 42 43 44 45 46 47 48 49 50
000
AXUS43 KLBF 041710
MISLBF


WESTERN AND NORTH CENTRAL NEBRASKA HOURLY WEATHER ROUNDUP
NATIONAL WEATHER SERVICE NORTH PLATTE NE
1100 AM CST WED MAR 04 2015

***STATIONS NOT REPORTING VARIABLES SUCH AS SKY/WEATHER OR
PRESSURE ARE PROVIDED BY THE NEBRASKA DEPARTMENT OF
ROADS...RAWS...AND APRS NETWORKS...AND ARE NOT UNDER
NATIONAL WEATHER SERVICE QUALITY CONTROL***

...OBSERVATIONS IN AND NEAR THE EASTERN PANHANDLE OF NEBRASKA...

CITY           SKY/WX    TMP DP  RH WIND       PRES   REMARKS
PINE RIDGE     SUNNY      8  -2  63 SW6       30.23S WCI  -2
CHADRON        CLOUDY    13  -1  54 NW16G25   30.24S WCI  -3
ALLIANCE       SUNNY     18   0  45 NW20G26   30.18S WCI   2
SIDNEY         MOSUNNY   19   1  45 NW17      30.19S WCI   4
WHITECLAY        N/A     10  -3  56 CALM        N/A
CRESCENT LAKE    N/A     19  -1  42 NW15        N/A  WCI   5
LISCO            N/A     25  -4  28 W22         N/A  WCI  10
BIG SPRINGS      N/A     22   8  54 W8          N/A  WCI  13
LEWELLEN         N/A     17  -4  38 NW12        N/A  WCI   4
$$

...OBSERVATIONS IN NORTH CENTRAL NEBRASKA...

CITY           SKY/WX    TMP DP  RH WIND       PRES   REMARKS
VALENTINE      SUNNY     16   1  51 NW17G23   30.27R WCI   0
THEDFORD       SUNNY     20   4  50 N10G17    30.24S WCI   9
AINSWORTH      SUNNY     17   1  49 NW14      30.25S WCI   3
O`NEILL        SUNNY     19  -2  39 NW21G29   30.30R WCI   3
ORD            SUNNY     25   0  33 NW17      30.27S WCI  12
BROKEN BOW     SUNNY     23   6  48 NW16      30.25S WCI  10
BROWNLEE         N/A     15  -3  44 NW15        N/A  WCI   0
SPRINGVIEW       N/A     15   1  53 NE10G20     N/A  WCI   2
BREWSTER         N/A     25   4  41 S9          N/A  WCI  15
ROSE             N/A     26  10  50 SW15        N/A  WCI  14
NEWPORT          N/A     24   7  49 W10         N/A  WCI  13
SARGENT          N/A     23   3  42 W6G13       N/A  WCI  16
COMSTOCK         N/A     28   7  41 NW10        N/A  WCI  18
CHAMBERS         N/A     21   1  41 W8G15       N/A  WCI  11
EWING            N/A     20   2  45 NW12G21     N/A  WCI   8
$$

...OBSERVATIONS IN SOUTHWEST NEBRASKA AND FAR NORTHEAST COLORADO...

CITY           SKY/WX    TMP DP  RH WIND       PRES   REMARKS
WRAY           FAIR      24   7  48 W7        30.23F WCI  16
IMPERIAL         N/A     20   3  48 NW12      30.25S WCI   8
OGALLALA       SUNNY     20   7  56 NW10      30.24F WCI   9
NORTH PLATTE   SUNNY     23   4  44 NW12      30.26S WCI  12
MCCOOK         MOSUNNY   23  13  65 NW9       30.29S WCI  13
LEXINGTON      SUNNY     21  10  63 NW13      30.28F WCI   9
PAXTON           N/A     20  11  68 NW8         N/A  WCI  10
BRADY            N/A     22   8  55 S3          N/A
GOTHENBURG       N/A     23   6  49 NW7         N/A  WCI  15
CALLAWAY         N/A     20   8  59 NW9         N/A  WCI   9
$$

...NORTH PLATTE AREA...

CITY           SKY/WX    TMP DP  RH WIND       PRES   REMARKS
AIRPORT        SUNNY     23   4  44 NW12      30.26S WCI  12
DOWNTOWN         N/A     21   4  48 NW5G13      N/A  WCI  15
$$

...SOME WEATHER OBSERVATIONS FROM AROUND THE REGION...

CITY           SKY/WX    TMP DP  RH WIND       PRES   REMARKS
DENVER         MOSUNNY   12   7  80 E7        30.13F HAZE    WCI   1
LARAMIE        SUNNY      6  -2  69 N6        29.99R WCI  -4
CHEYENNE       SUNNY     12  -2  53 SW9       30.06S WCI   0
SCOTTSBLUFF    SUNNY     22  -2  35 NW18      30.19F WCI   7
RAPID CITY     SUNNY     13   3  64 N22       30.21R WCI  -6
PIERRE         SUNNY      8  -4  58 NW18      30.32R WCI -11
WINNER         FAIR      12  -2  53 NW15      30.30R WCI  -4
SIOUX FALLS    MOSUNNY   12   1  61 NW23G30   30.26R WCI  -7
OMAHA          MOSUNNY   26   5  40 NW10      30.30F WCI  16
GRAND ISLAND   SUNNY     24   7  48 NW15      30.30F WCI  11
KANSAS CITY    CLOUDY    23   6  48 N14G21    30.31S WCI  11
WICHITA        CLOUDY    23  14  68 N13       30.30R WCI  11
HAYS           PTSUNNY   23   5  46 N15       30.31F WCI  10
LIBERAL        PTSUNNY   21  14  73 NE17      30.26R WCI   7
GOODLAND       CLOUDY    21   9  59 N12       30.23F WCI   9
$$



USA.gov is the U.S. government's official web portal to all federal, state and local government web resources and services.